STARLINK-3389, 51124

Orbit data source: Space-Track

STARLINK-3389, 51124 is a payload satellite owned by SpaceX/Seattle (US) in LEO that was launched on Wed, 19 Jan 2022 UTC via an FALCON 9 launch vehicle from the Air Force Eastern Test Range (AFETR). Payload-class satellites include a variety of spacecraft equipped with specific instruments for various scientific and technological missions. These include communications satellites like Starlink; space stations such as the ISS; scientific satellites like the Hubble; Earth observation satellites from companies like Planet Labs, Umbra, and HawkEye 360; GPS; miniature CubeSats for education and research; and military/defense satellites.

Loading next visibility...
Identifier
51124, 2022-005W
Orbit
LEO
Country
Flag of USUS
Related business
Manufacturer
SpaceX/Seattle
Mission
Operational Commercial Communications
Bus & Motor
STARLINK, Unknown motor
Mass
297 kg wet, ~275 kg dry
Launch date (UTC)
2022-01-19 (4 years ago)
Launch vehicle
FALCON 9
Launch site
Air Force Eastern Test Range (AFETR)
Object type
Payload
Rocket body
Debris
Shape & HBR
Box + 1 Pan, 10.1 m
Radar Cross Section
13.562 m², Large (>1 m²)

Expand to show TLE details & history
Last TLE update: 1 day ago

TLE from 1 day ago
0 STARLINK-3389
1 51124U 22005W   26093.66695831 -.00000473  00000-0 -11645-4 0  9993
2 51124  53.2170 186.9936 0001635  94.6916 265.4263 15.08836599232510
Epoch: 2026-04-03T16:00Z
TLE epoch observation values (Epoch: 2026-04-03T16:00:25.197Z)
Latitude
-0.00004°
Longitude
114.89078°
Altitude
540.742 km
Speed
7.593 km/s
True Right ascension
12h 27m 58s
True Declination
0° 00' 00"
Sunlit
Object was in full shadow at epoch
Visualization orbit readout
Latitude
Unknown
Longitude
Unknown
Altitude
Unknown
Speed
Unknown
Apparent Right ascension
Unknown
Apparent Declination
Unknown
Sunlit
N/A
Visualization observer readout
Local Sidereal Time
22:31:14
Azimuth
Unknown
Elevation
Unknown
Doppler factor
Unknown
Orbital elements
Apogee altitude
541.13 km
Perigee altitude
538.868 km
Semi-major axis
6,918.136 km
Eccentricity
0.00016
Inclination
53.217°
RAAN
186.9936°
Arg. of periapsis
94.6916°
True anomaly
265.40762°
Mean anomaly
265.4263°
Eccentric anomaly
265.41696°
Mean motion
3.77189 °/min
Orbital period
95.44 mins
BSTAR
-0.000011645
Loading maneuver chart data...
Computing Atmospheric mass density...
Loading historical data...
Loading historical data...
Loading historical data...
Loading historical data...
Loading historical data...
Loading historical data...
Loading historical data...

Documentation

Showing up to 5 results
|